Regional Weather Roundup
Issued by NWS Sterling, VA

Home | Current Version | Previous Version | Graphics & Text | Print | Product List | Glossary On
Versions: 1 2 3 4 5 6 7 8 9 10 11 12 13 14 15 16 17 18 19 20 21 22 23 24 25 26 27 28 29 30 31 32 33 34 35 36 37 38 39 40 41 42 43 44 45 46 47 48 49 50
000
ASUS41 KLWX 262010
RWRLWX

REGIONAL WEATHER ROUNDUP
NATIONAL WEATHER SERVICE BALTIMORE MD/WASHINGTON DC
400 PM EDT TUE MAY 26 2015

Note: "FAIR" indicates few or no clouds below 12,000 feet
with no significant weather and/or obstructions to visibility.
 TC=TEMPERATURE CELSIUS

 * =Non NWS site. Station does not report precipitation (e.g. rain,
    snow, etc.), thunder, or fog.

DCZ001-MDZ009-015-VAZ040>042-051-053>054-262100-
WASHINGTON METRO

CITY           SKY/WX    TMP DP  RH WIND       PRES   REMARKS
WASHINGTON NAT CLOUDY    87  66  49 S15       30.16F
DULLES         PTSUNNY   85  66  53 S9        30.16F
ANDREWS AFB    MOSUNNY   84  67  57 S12       30.17F
FT BELVOIR     MOSUNNY   86  67  53 S8        30.16F
QUANTICO       PTSUNNY   81  70  69 S12       30.17F
COLLEGE PARK*  MOSUNNY   86  64  48 S8        30.16F
LEESBURG*      PTSUNNY   88  68  51 S8        30.17F HX  91
MANASSAS*      MOSUNNY   88  68  51 S10       30.16F HX  91
GAITHERSBURG*  CLOUDY    84  64  51 S6        30.21F

$$

MDZ006>007-011-014-262100-
BALTIMORE METRO

CITY           SKY/WX    TMP DP  RH WIND       PRES   REMARKS
BWI AIRPORT    PTSUNNY   87  64  46 SW9       30.15F
MD SCIENCE CTR   N/A     86  62  44 MISG      30.15F
MARTIN STATE   PTSUNNY   84  72  65 SE16      30.18F
ANNAPOLIS      SUNNY     78  66  66 S17G24    30.17F
FORT MEADE*    PTSUNNY   82  64  54 SW8       30.18F

$$

MDZ012-015-019>023-262100-
MARYLAND EASTERN SHORE

CITY           SKY/WX    TMP DP  RH WIND       PRES   REMARKS
OCEAN CITY     SUNNY     72  63  73 S14G24    30.24F
SALISBURY      SUNNY     83  62  49 S15       30.21F
BAY BRIDGE AP*   N/A    N/A N/A N/A S13       30.18F
CAMBRIDGE*     SUNNY     82  64  54 S13       30.20F
EASTON*        MOSUNNY   86  68  54 S15       30.22F

$$

MDZ017>025-262100-
SOUTHERN MARYLAND

CITY           SKY/WX    TMP DP  RH WIND       PRES   REMARKS
PATUXENT RIVER PTSUNNY   80  66  62 SE14      30.19F
ST INIGOES     SUNNY     81  66  60 S14G20    30.19F
LEONARDTOWN*   MOSUNNY   82  63  51 S10G20    30.21F

$$

MDZ003>005-262100-
NORTH CENTRAL MARYLAND

CITY           SKY/WX    TMP DP  RH WIND       PRES   REMARKS
FREDERICK*     SUNNY     84  66  54 S5        30.18F
HAGERSTOWN APT CLOUDY    83  62  49 S7        30.16F
WESTMINSTER*   CLOUDY    84  64  51 SW8       30.18F

$$

MDZ501>502-262100-
WESTERN MARYLAND

CITY           SKY/WX    TMP DP  RH WIND       PRES   REMARKS
OAKLAND*       PTSUNNY   73  64  73 SW5       30.25F
CUMBERLAND*    PTSUNNY   84  63  48 S6        30.19F

$$

VAZ025>031-262100-
SHENANDOAH VALLEY

CITY           SKY/WX    TMP DP  RH WIND       PRES   REMARKS
WINCHESTER*    PTSUNNY   86  59  39 SE6       30.17F
FRONT ROYAL*   FAIR      82  68  61 SE3       30.16F
LURAY*         FAIR      88  63  42 SW6       30.17F
NEW MARKET*    MOCLDY    85  65  50 S8        30.15F
STAUNTON*      MOSUNNY   84  60  44 SW6       30.20F
WAYNESBORO*    CLOUDY    79  66  63 S8        30.20F

$$

WVZ021-048>050-054>055-262100-
EASTERN WEST VIRGINIA PANHANDLE

CITY           SKY/WX    TMP DP  RH WIND       PRES   REMARKS
MARTINSBURG    CLOUDY    82  65  56 S6        30.17F
PETERSBURG*    PTSUNNY   82  60  46 CALM      30.17F

$$

VAZ036>039-050-262100-
CENTRAL FOOTHILLS

CITY           SKY/WX    TMP DP  RH WIND       PRES   REMARKS
CHARLOTTESVILL MOSUNNY   87  66  49 SW12      30.16F
CULPEPER*      PTSUNNY   84  67  56 S6        30.16F
ORANGE*        MOSUNNY   86  68  54 S7        30.18F
GORDONSVILLE*  MOCLDY    84  69  59 S5        30.16F
WARRENTON*     PTSUNNY   88  70  55 S8        30.16F HX  93

$$

VAZ055>057-262100-
NORTH AND CENTRAL PIEDMONT

CITY           SKY/WX    TMP DP  RH WIND       PRES   REMARKS
FREDERICKSBRG* MOSUNNY   88  67  49 S12       30.17F HX  91
STAFFORD*      MOSUNNY   86  64  47 S7        30.21F

$$

NCZ024-NYZ072-PAZ021-071-VAZ022-071-262100-
OTHER REGIONAL OBSERVATIONS

CITY           SKY/WX    TMP DP  RH WIND       PRES   REMARKS
NEW YORK CITY  MOSUNNY   85  60  42 VRB7      30.17F
PHILADELPHIA   PTSUNNY   87  61  41 SW15      30.16F
PITTSBURGH     PTSUNNY   78  65  63 S13       30.12F
ROANOKE        PTSUNNY   84  64  50 S13G22    30.20F
RICHMOND       PTSUNNY   86  65  49 S14       30.20F
RALEIGH        PTSUNNY   86  67  52 SW9       30.22F

$$

ANZ530>537-262100-
MARINE OBSERVATIONS

STATION/POSITION TIME  TEMP    WIND        PRES
                       AIR SEA DIR/SP/G
                 (UTC) (F)     (DEG/KT/KT) (MB)
THOMAS PT LIGHT  2000   72 68  170/ 19/ 20 1022.0F
BALT KEY BRIDGE  1900   78     140/ 15/ 16 1021.3F
COVE POINT       1900   70     180/ 19/ 22 1023.6F
LEWISETTA        1900   82 74              1022.7F
SOLOMONS ISLAND  1900      70                N/A
PINEY POINT      1900          200/  9/ 10   N/A

$$



USA.gov is the U.S. government's official web portal to all federal, state and local government web resources and services.